This demonstration page uses our WeatherBlox Daily Observations layout. Learn more.

Left ArrowRight Arrow

36.17497, -115.13722

Hourly Observations for July 19, 2021

Temp ( °F °C ) Dew Point ( °F °C ) Humidity (%) Winds ( mph kmh ) Pressure ( in mb ) Visibility ( mi km ) Precip ( " mm )
12:53 am 00:53 Clear 85 29.4 63 17.2 48 48 E 9 15 30.00 1016 10 16 0.00 0.00
1:53 am 01:53 Clear 84 28.9 64 17.8 51 51 SSE 6 9 29.99 1016 10 16 0.00 0.00
2:53 am 02:53 Mostly Clear 85 29.4 62 16.7 46 46 SW 3 6 29.99 1016 10 16 0.00 0.00
3:53 am 03:53 Partly Cloudy 84 28.9 62 16.7 48 48 SE 5 7 29.99 1016 10 16 0.00 0.00
4:53 am 04:53 Clear 85 29.4 62 16.7 46 46 S 3 6 30.00 1016 10 16 0.00 0.00
5:53 am 05:53 Mostly Sunny 86 30 62 16.7 45 45 Calm 30.01 1016 10 16 0.00 0.00
6:53 am 06:53 Cloudy 85 29.4 62 16.7 46 46 Calm 30.03 1017 10 16 0.00 0.00
7:53 am 07:53 Cloudy 85 29.4 63 17.2 48 48 Calm 30.05 1018 10 16 0.00 0.00
8:53 am 08:53 Cloudy 86 30 62 16.7 45 45 Calm 30.05 1018 10 16 0.00 0.00
9:53 am 09:53 Sunny 89 31.7 61 16.1 39 39 Calm 30.05 1018 10 16 0.00 0.00
10:53 am 10:53 Sunny 93 33.9 60 15.6 33 33 NW 5 7 30.04 1017 10 16 0.00 0.00
11:53 am 11:53 Sunny 93 33.9 60 15.6 33 33 S 3 6 30.03 1017 10 16 0.00 0.00
12:53 pm 12:53 Sunny 94 34.4 60 15.6 32 32 Calm 30.00 1016 10 16 0.00 0.00
1:53 pm 13:53 Sunny 95 35 60 15.6 31 31 S 8 13 29.99 1016 10 16 0.00 0.00
2:53 pm 14:53 Mostly Cloudy 93 33.9 63 17.2 37 37 VRB 7 11 29.98 1015 10 16 0.00 0.00
3:53 pm 15:53 Sunny 96 35.6 61 16.1 31 31 VRB 3 6 29.95 1014 10 16 0.00 0.00
4:53 pm 16:53 Sunny 99 37.2 59 15 27 27 SE 7 11 29.93 1014 10 16 0.00 0.00
5:53 pm 17:53 Sunny 97 36.1 58 14.4 27 27 SSW 5 7 29.91 1013 10 16 0.00 0.00
6:53 pm 18:53 Sunny 97 36.1 58 14.4 27 27 Calm 29.91 1013 10 16 0.00 0.00
7:53 pm 19:53 Sunny 97 36.1 58 14.4 27 27 WSW 3 6 29.92 1013 10 16 0.00 0.00
8:53 pm 20:53 Clear 97 36.1 59 15 28 28 WSW 5 7 29.92 1013 10 16 0.00 0.00
9:53 pm 21:53 Clear 95 35 58 14.4 29 29 ENE 3 6 29.93 1014 10 16 0.00 0.00
10:53 pm 22:53 Clear 94 34.4 61 16.1 33 33 SSW 6 9 29.94 1014 10 16 0.00 0.00
11:53 pm 23:53 Partly Cloudy 93 33.9 60 15.6 33 33 NNW 17 28 29.94 1014 10 16 0.00 0.00

Powered by AerisWeather